This is the latest recevied weather packets stored in our database for station/object N4WFF. If no packets are shown the sender has not sent any weather packets the latest 10 day(s).
| Time | Temp. | Humidity | Pressure | Rain* | Wind** | Luminosity | Snow |
|---|---|---|---|---|---|---|---|
| 1777941355 | 20.56° C | 59% | 1014.2 hPa | 0 mm | - | 1 W/m² | - |
| 1777941055 | 21.11° C | 54% | 1014.1 hPa | 0 mm | - | 3 W/m² | - |
| 1777940755 | 21.11° C | 54% | 1014.2 hPa | 0 mm | - | 4 W/m² | - |
| 1777940456 | 21.67° C | 54% | 1014.1 hPa | 0 mm | - | 7 W/m² | - |
| 1777940155 | 21.67° C | 52% | 1014.1 hPa | 0 mm | - | 10 W/m² | - |
| 1777939855 | 22.22° C | 51% | 1014 hPa | 0 mm | - | 13 W/m² | - |
| 1777939556 | 22.78° C | 50% | 1014 hPa | 0 mm | - | 17 W/m² | - |
| 1777939255 | 22.78° C | 51% | 1014 hPa | 0 mm | - | 23 W/m² | - |
| 1777938955 | 23.33° C | 50% | 1014 hPa | 0 mm | - | 27 W/m² | - |
| 1777938655 | 23.89° C | 48% | 1014 hPa | 0 mm | - | 32 W/m² | - |
| 1777938355 | 24.44° C | 46% | 1014.1 hPa | 0 mm | - | 36 W/m² | - |
| 1777938056 | 25° C | 48% | 1014.1 hPa | 0 mm | - | 39 W/m² | - |
| 1777937755 | 25.56° C | 45% | 1014.2 hPa | 0 mm | - | 42 W/m² | - |
| 1777937456 | 25.56° C | 43% | 1014.2 hPa | 0 mm | - | 45 W/m² | - |
| 1777937155 | 26.11° C | 38% | 1014.1 hPa | 0 mm | - | 98 W/m² | - |
| 1777936855 | 26.11° C | 39% | 1014.2 hPa | 0 mm | - | 105 W/m² | - |
| 1777936555 | 26.11° C | 38% | 1014.2 hPa | 0 mm | - | 118 W/m² | - |
| 1777936255 | 26.67° C | 37% | 1014.1 hPa | 0 mm | - | 136 W/m² | - |
| 1777935955 | 26.11° C | 38% | 1014.1 hPa | 0 mm | - | 136 W/m² | - |
| 1777935657 | 26.67° C | 36% | 1014 hPa | 0 mm | - | 168 W/m² | - |
| 1777935355 | 26.11° C | 37% | 1014 hPa | 0 mm | - | 183 W/m² | - |
| 1777935056 | 26.11° C | 35% | 1014.1 hPa | 0 mm | - | 202 W/m² | - |
| 1777934755 | 26.11° C | 36% | 1014.1 hPa | 0 mm | - | 157 W/m² | - |
| 1777934456 | 26.67° C | 37% | 1014.1 hPa | 0 mm | - | 126 W/m² | - |
| 1777934155 | 26.67° C | 35% | 1014.2 hPa | 0 mm | - | 252 W/m² | - |
* Rain latest hour (hover to see other rain measurements)
** Current wind speed in m/s (hover to see current wind gust speed)